This is the latest recevied weather packets stored in our database for station/object KO4T-4. If no packets are shown the sender has not sent any weather packets the latest 10 day(s).
| Time | Temp. | Humidity | Pressure | Rain* | Wind** | Luminosity | Snow |
|---|---|---|---|---|---|---|---|
| 1777502404 | 25.56° C | 56% | 1008.4 hPa | 0 mm | - | - | - |
| 1777502104 | 25.56° C | 57% | 1008.4 hPa | 0 mm | - | - | - |
| 1777501805 | 25.56° C | 57% | 1008.3 hPa | 0 mm | - | - | - |
| 1777501504 | 26.11° C | 57% | 1008.5 hPa | 0 mm | - | - | - |
| 1777501206 | 26.11° C | 57% | 1008.4 hPa | 0 mm | - | - | - |
| 1777500903 | 26.11° C | 58% | 1008.4 hPa | 0 mm | - | - | - |
| 1777500606 | 25.56° C | 60% | 1008.4 hPa | 0 mm | - | - | - |
| 1777500304 | 26.11° C | 64% | 1008.5 hPa | 0 mm | - | - | - |
| 1777500005 | 26.67° C | 61% | 1008.4 hPa | 0 mm | - | - | - |
| 1777499704 | 26.67° C | 62% | 1008.5 hPa | 0 mm | - | - | - |
| 1777499404 | 26.67° C | 60% | 1008.5 hPa | 0 mm | - | - | - |
| 1777499104 | 26.67° C | 63% | 1008.4 hPa | 0 mm | - | - | - |
| 1777498806 | 26.67° C | 61% | 1008.4 hPa | 0 mm | - | - | - |
| 1777498504 | 26.67° C | 60% | 1008.3 hPa | 0 mm | - | - | - |
| 1777498205 | 26.67° C | 62% | 1008.4 hPa | 0 mm | - | - | - |
| 1777497904 | 26.67° C | 62% | 1008.4 hPa | 0 mm | - | - | - |
| 1777497604 | 26.67° C | 64% | 1008.4 hPa | 0 mm | - | - | - |
| 1777497304 | 26.11° C | 63% | 1008.4 hPa | 0 mm | - | - | - |
| 1777497004 | 26.67° C | 62% | 1008.5 hPa | 0 mm | - | - | - |
| 1777496704 | 26.67° C | 61% | 1008.4 hPa | 0 mm | - | - | - |
| 1777496405 | 27.22° C | 60% | 1008.4 hPa | 0 mm | - | - | - |
| 1777496103 | 27.78° C | 56% | 1008.2 hPa | 0 mm | - | - | - |
| 1777495805 | 27.22° C | 59% | 1008.4 hPa | 0 mm | - | - | - |
| 1777495504 | 27.22° C | 59% | 1008.6 hPa | 0 mm | - | - | - |
| 1777495204 | 27.22° C | 59% | 1008.7 hPa | 0 mm | - | - | - |
* Rain latest hour (hover to see other rain measurements)
** Current wind speed in m/s (hover to see current wind gust speed)